Weather Service Report


923 
ASUS41 KAKQ 281410
RWRAKQ

REGIONAL WEATHER ROUNDUP
NATIONAL WEATHER SERVICE WAKEFIELD VA
900 AM EST WED JAN 28 2015

Note: "fair" indicates few or no clouds below 12,000 feet with no
significant weather and/or obstructions to visibility. * = Denotes
station may not report precipitation (e.g., rain,snow,etc.),
thunder or fog.

VAZ042-051-052>054-056-281500-
NORTHERN VIRGINIA
  
CITY           SKY/WX    TMP DP  RH WIND       PRES   REMARKS
WASH NATIONAL  SUNNY     27   7  42 NW14G24   30.22R WCI  16          
DULLES         SUNNY     23   7  50 NW15      30.21R WCI  10          
FORT BELVOIR   SUNNY     25   6  44 NW17G29   30.23R WCI  12          
QUANTICO       SUNNY     27   8  44 N13G20    30.24R WCI  16          
FREDERICKSBRG* SUNNY     29  10  44 N9G18     30.22R                  
STAFFORD*      SUNNY     27   6  42 N10G16    30.26R WCI  17          
WARRENTON      SUNNY     29  14  53 N6        30.20R                  
CULPEPER*      SUNNY     30   7  37 N9        30.21R                  
MANASSAS*      SUNNY     25  12  58 N2          N/A                   
LEESBURG*      SUNNY     25  12  58 N16G25    30.23R WCI  12          
WINCHESTER     SUNNY     25   5  42 NW12G18   30.22R WCI  14          
FRONT ROYAL*   FAIR      27   3  36 CALM      30.21R                  
LURAY*         FAIR      28  16  59 CALM      30.21R                  
$$

VAZ048-049-060>072-079>083-281500-
CENTRAL AND SOUTH CENTRAL VIRGINIA
  
CITY           SKY/WX    TMP DP  RH WIND       PRES   REMARKS
RICHMOND       SUNNY     29  11  47 N12       30.21R WCI  19          
CHESTERFIELD*  FAIR      28   5  37 N9        30.22R                  
PETERSBURG*    SUNNY     30  13  48 N9        30.22R                  
HANOVER        SUNNY     28  11  48 VRB3      30.23R                  
TAPPAHANNOCK*  SUNNY     28   7  42 NW7       30.21R                  
QUINTON*       FAIR      27   9  47 N9G18     30.21R                  
CHARLOTTSVILLE SUNNY     32   4  30 CALM      30.17R                  
GORDONSVILLE*  FAIR      25  16  68 CALM      30.19R                  
ORANGE*        SUNNY     28  16  59 CALM      30.21R                  
LOUISA*        SUNNY     27  16  63 CALM      30.18R                  
BUMPASS*       FAIR      27  10  50 CALM      30.20R                  
FARMVILLE*     SUNNY     33  19  55 CALM      30.19R                  
CREWE*         FAIR      30  13  49 NW6       30.20R                  
FORT PICKETT*  FAIR      29  16  56 N7        30.20R                  
CHASE CITY*    FAIR      30  17  59 NW6       30.21R                  
CLARKSVILLE*   FAIR      30  18  59 NW7       30.20R                  
SOUTH HILL*    SUNNY     28  16  62 NW3       30.26R                  
LAWRENCEVILLE* FAIR      29  19  67 N5        30.20R                  
EMPORIA*       SUNNY     28  18  64 NW7       30.23R                  
$$

VAZ088>098-281500-
SOUTHEAST VIRGINIA
  
CITY           SKY/WX    TMP DP  RH WIND       PRES   REMARKS
NORFOLK        SUNNY     30  16  56 N12G21    30.18R WCI  20          
VIRGINIA BEACH SUNNY     32  17  54 N15G23    30.17R WCI  22          
NORFOLK NAVAL  SUNNY     31  13  47 N17G29    30.20R WCI  19          
WEST POINT*    SUNNY     31   8  39 N10G16    30.23R WCI  22          
SALUDA*        FAIR      27  12  53 N14G20    30.19R WCI  15          
NEWPORT NEWS   SUNNY     31  13  47 N14       30.20R WCI  21          
LANGLEY AFB    SUNNY     28  13  52 N15G22    30.19R WCI  17          
FORT EUSTIS    SUNNY     28  14  54 N13G21    30.19R WCI  18          
WILLIAMSBURG*    N/A     28  14  54 N8G20     30.21R                  
HR EXEC AP*    FAIR      30  12  47 N6G20     30.21R                  
FRANKLIN*      SUNNY     29  10  44 N13       30.21R WCI  19          
WAKEFIELD      SUNNY     30   8  39 N8G17     30.21R                  
$$

VAZ020-022-025-037-045-281500-
WEST CENTRAL AND SOUTHWEST VIRGINIA
  
CITY           SKY/WX    TMP DP  RH WIND       PRES   REMARKS
STAUNTON*      SUNNY     24  16  70 CALM      30.21R                  
WAYNESBORO*    FAIR      22  12  66 W7        30.17R                  
HOT SPRINGS VA MOSUNNY   12  11  97 W18       30.03R WCI  -6          
LYNCHBURG      SUNNY     30  12  47 CALM      30.20R                  
DANVILLE       SUNNY     31  14  49 NW10      30.22R WCI  22          
SOUTH BOSTON*  FAIR      29  14  53 NW8       30.22R                  
MARTINSVILLE   SUNNY     30  16  55 N8        30.24R                  
ROANOKE        SUNNY     27  13  55 NW9       30.24R                  
BLACKSBURG     MOSUNNY   20  13  73 SW6       30.23R                  
DUBLIN*        SUNNY     24  16  71 NW8       30.23R                  
MARION*        FLURRIES  22  15  74 SW10      30.24R WCI  11          
HILLSVILLE*    MOSUNNY   19  13  79 NW15      30.17R WCI   5          
RICHLANDS*     LGT SNOW  17  11  78 CALM      30.23R                  
WISE*          FLURRIES  18  18 100 CALM      30.23S                  
ABINGDON*      SUNNY     22  16  76 CALM      30.26R                  
$$

MDZ021>025-VAZ099-100-281500-
SOUTHERN MARYLAND AND THE DELMARVA PENINSULA
  
CITY           SKY/WX    TMP DP  RH WIND       PRES   REMARKS
PATUXENT RIVER SUNNY     26   9  48 NW17      30.19R WCI  13          
BAY BRIDGE APT   N/A     27   7  43 NW9       30.20R                  
LEONARDTOWN    SUNNY     27   9  46 NW7G17    30.21R                  
DOVER          SUNNY     23   5  44 NW20G29   30.13R WCI   9          
GEORGETOWN     SUNNY     25   4  40 NW12G22   30.14R WCI  14          
EASTON         SUNNY     27  10  50 NW18G25   30.21R WCI  13          
CAMBRIDGE      SUNNY     30  10  43 NW15      30.17R WCI  19          
SALISBURY      SUNNY     28   6  39 NW18G25   30.15R WCI  15          
OCEAN CITY     SUNNY     25   6  44 NW16G31   30.13R WCI  12          
WALLOPS ISLAND SUNNY     27   8  44 N20G25    30.15R WCI  13          
ACCOMACK*      SUNNY     30  14  51 NW13G25   30.16R WCI  20          
$$

NCZ012>017-030>032-281500-
NORTH CENTRAL AND EASTERN NORTH CAROLINA
  
CITY           SKY/WX    TMP DP  RH WIND       PRES   REMARKS
ROANOKE RAPIDS FAIR      32  19  59 N14       30.21R WCI  22          
RALEIGH        SUNNY     29  14  53 CALM      30.22R                  
ELIZABETH CITY SUNNY     31  17  56 N17       30.17R WCI  19          
AHOSKIE*       SUNNY     30  12  48 N10G17    30.21R WCI  21          
EDENTON*       SUNNY     31  18  59 N16       30.18R WCI  20          
CURRITUCK*     SUNNY     30  18  59 NW9G18    30.17R                  
KILL DEVIL HLS MOSUNNY   33  24  70 NW8G17    30.13R                  
MANTEO         MOSUNNY   34  25  69 N15G23    30.15R WCI  24          
CAPE HATTERAS  PTSUNNY   34  26  72 N10G21    30.13R                  
TARBORO*       FAIR      32  20  60 N6        30.22R                  
GOLDSBORO      SUNNY     31  24  73 N8        30.19R                  
WASHINGTON     SUNNY     32  16  53 N13       30.19R WCI  22          
GREENVILLE     SUNNY     32  19  59 N10       30.21R WCI  24          
NEW BERN       SUNNY     34  18  52 N15G23    30.19R WCI  24          
WILMINGTON     SUNNY     32  18  56 N12       30.19R WCI  23          
$$

VAZ048-281500-
ELSEWHERE
  
CITY           SKY/WX    TMP DP  RH WIND       PRES   REMARKS
HARRISBURG PA  MOSUNNY   20   3  48 NW16      30.19R WCI   6          
BALTIMORE      SUNNY     24   4  42 NW13G20   30.18R WCI  12          
ANNAPOLIS      SUNNY     25   8  48 NW14      30.19R WCI  13          
ANDREWS AFB    SUNNY     24   8  49 NW18G25   30.19R WCI  10          
PHILADELPHIA   MOSUNNY   22   0  38 NW17G25   30.13R WCI   8          
HENDERSON NC   SUNNY     29  14  54 NW10      30.20R WCI  19          
GREENSBORO     SUNNY     28  16  60 NW5       30.20R                  
ROCKY MOUNT    SUNNY     32  17  54 N10       30.21R WCI  24          
$$

VAZ100-281500-
MARINE
  
STATION/POSITION TIME  TEMP    WIND        PRES    WAVE   SWELL
                       AIR SEA DIR/SP/G            HT/PER HT/PER
                 (UTC) (F)     (DEG/KT/KT) (MB)    (FT/S) (FT/S)
BRANDYWINE LGT   1400   23 36  340/ 22/ 28 1019.9R
CAPE MAY NJ      1400   25 34  320/ 23/ 31 1019.5R
LEWES DE         1400   24 34  330/ 24/ 29 1020.0R
15NM E FENWICK I 1400   27 40              1018.2R   7/ 5
OCEAN-CITY-INLET 1400   25 36  340/ 15/ 19 1019.6R
WACHAPREAGUE VA  1400   29 37  320/  5/ 14 1021.1R
THOMAS POINT MD  1400   24 36  320/ 10/ 13 1023.5R
GOOSES REEF MD   1400   26     VRB 17/ 19  1021.2R
COVE POINT MD    1400   23     350/ 18/ 22 1022.1R
SOLOMONS ISLAND  1400      37                N/A
BISHOPS HEAD MD  1400   26 33  330/ 14/ 19 1021.3R
PINEY POINT MD   1400          340/ 17/ 19   N/A
POTOMAC MD       1400   26     340/ 16/ 17 1021.3R
CAMBRIDGE MD     1400   26 35  320/ 15/ 19 1021.7R
LEWISETTA VA     1400   27 36  340/ 11/ 13 1022.6R
RAPPAHANNOCK LGT 1400          340/ 24/ 28 1022.0R
STINGRAY PT      1400   27     340/ 17/ 21 1022.5R
YORK RVR RNG VA  1400   28     340/ 16/ 19 1021.6R
YORKTOWN VA      1400   27 40  330/ 14/ 19 1022.3R
JAMESTOWN VA     1400   27     360/ 12/ 19   N/A
DOMINION TERM VA 1400   28     340/ 14/ 22 1022.3R
KIPTOPEKE VA     1400      44  350/ 19/ 25   N/A
CHES BAY BRIDGE  1400   29 41  320/ 17/ 23 1021.5R
CAPE HENRY VA    1400   29     330/ 20/ 25 1020.2R
WILLOUBY STN VA  1400   28     340/ 16/ 19 1022.6R
S CRANEY ISL VA  1400          350/ 11/ 15 1022.2R
CAPE HENRY BUOY  1400      43                N/A     6/11   2/11
1ST LANDING BUOY 1400   31     340/ 19/ 25 1021.0R
CAPE CHARLES BUO 1400      41                N/A     5/13   2/13
OFFSHORE WE BUOY 1400      44                N/A     8/ 5   3/13
64NM E OF VA BCH 1400   35 51  350/ 23/ 29 1018.6R  11/13   8/13
DUCK PIER NC     1400   32 42  330/ 20/ 23 1019.6R
44100 DUCK FRF   1400      45                N/A    10/13   5/13
44056 DUCK FRF   1400      42                N/A     7/11   3/11
OREGON INLET NC  1400   34 42  340/ 16/ 22 1020.1R
HATTERAS NC      1400   34 47  360/ 21/ 24 1020.4R
DIAMOND SHLS NC  1400   38 68  350/ 23/ 31 1018.7R   8/12   7/12

Return to Home page


Western Regional Climate Center, wrcc@dri.edu